Total_Precipitation_Accumulation
0.01 0.01 0.02 0.02 0.03 0.03 0.05 0.06 0.07 0.08 0.09 0.10 0.10 0.11 0.13 0.15 0.18 0.23 0.27 0.31 0.35 0.35 0.36 0.38 0.39 0.39 0.39 0.37 0.36 0.37 0.39 0.53 0.55 0.18 0.10 0.17 0.28 0.33 0.33 0.30 0.29 0.28 0.26
0.03 0.03 0.04 0.05 0.06 0.09 0.11 0.12 0.13 0.14 0.15 0.14 0.14 0.14 0.14 0.15 0.18 0.20 0.24 0.28 0.35 0.38 0.40 0.44 0.45 0.45 0.47 0.47 0.48 0.46 0.44 0.48 0.58 0.39 0.16 0.16 0.24 0.32 0.37 0.36 0.29 0.26 0.24
0.04 0.05 0.06 0.09 0.12 0.16 0.19 0.20 0.20 0.20 0.20 0.19 0.20 0.20 0.21 0.24 0.28 0.29 0.28 0.30 0.33 0.36 0.38 0.43 0.48 0.54 0.57 0.56 0.56 0.55 0.50 0.44 0.47 0.48 0.29 0.20 0.23 0.29 0.35 0.38 0.35 0.33 0.28
0.09 0.11 0.14 0.18 0.22 0.25 0.26 0.25 0.24 0.23 0.24 0.24 0.25 0.26 0.30 0.38 0.52 0.56 0.45 0.41 0.38 0.38 0.38 0.41 0.48 0.56 0.64 0.70 0.75 0.66 0.59 0.60 0.58 0.56 0.42 0.31 0.28 0.30 0.42 0.46 0.45 0.42 0.41
0.20 0.23 0.23 0.22 0.22 0.22 0.22 0.22 0.23 0.25 0.27 0.26 0.25 0.27 0.32 0.47 0.79 0.83 0.66 0.53 0.47 0.44 0.42 0.44 0.48 0.60 0.78 0.95 1.05 0.99 0.93 0.93 0.85 0.80 0.67 0.51 0.43 0.45 0.53 0.53 0.56 0.50 0.50
0.27 0.27 0.25 0.22 0.21 0.21 0.22 0.23 0.23 0.23 0.22 0.19 0.17 0.22 0.31 0.48 0.87 0.94 0.76 0.54 0.48 0.48 0.48 0.44 0.42 0.48 0.57 0.72 0.92 0.99 1.04 1.11 1.12 1.07 0.98 0.84 0.61 0.53 0.58 0.71 0.80 0.80 0.69
0.28 0.28 0.26 0.24 0.23 0.22 0.20 0.19 0.18 0.17 0.14 0.11 0.09 0.12 0.19 0.36 0.73 0.83 0.70 0.47 0.38 0.40 0.40 0.36 0.35 0.35 0.38 0.38 0.47 0.53 0.62 0.76 0.96 1.11 1.20 0.99 0.77 0.67 0.78 0.95 0.99 0.97 0.78
0.25 0.23 0.19 0.16 0.15 0.14 0.14 0.13 0.11 0.10 0.09 0.07 0.05 0.06 0.08 0.16 0.50 0.74 0.59 0.33 0.28 0.31 0.31 0.34 0.35 0.33 0.32 0.37 0.44 0.46 0.43 0.47 0.65 0.88 1.03 0.94 0.86 0.84 0.98 1.20 1.35 1.40 1.13
0.15 0.12 0.09 0.07 0.07 0.08 0.09 0.07 0.06 0.05 0.04 0.04 0.03 0.04 0.04 0.08 0.30 0.66 0.63 0.29 0.27 0.26 0.28 0.38 0.43 0.39 0.38 0.49 0.63 0.61 0.46 0.37 0.43 0.70 0.95 1.00 1.03 1.21 1.39 1.71 1.95 2.00 1.74
0.07 0.05 0.03 0.02 0.03 0.04 0.04 0.03 0.03 0.03 0.03 0.03 0.03 0.03 0.03 0.05 0.18 0.55 0.76 0.39 0.31 0.26 0.28 0.38 0.57 0.55 0.52 0.56 0.65 0.65 0.59 0.40 0.36 0.41 0.50 0.61 0.68 0.74 1.01 1.37 1.59 1.74 1.72
0.02 0.01 0.01 0.00 0.01 0.01 0.02 0.02 0.03 0.03 0.03 0.03 0.03 0.03 0.03 0.04 0.08 0.35 0.76 0.65 0.45 0.38 0.36 0.43 0.55 0.54 0.53 0.55 0.61 0.61 0.60 0.57 0.55 0.54 0.48 0.43 0.46 0.56 0.70 0.97 1.20 1.38 1.55
0.00 0.00 0.00 0.00 0.01 0.01 0.02 0.02 0.03 0.03 0.04 0.04 0.05 0.04 0.03 0.03 0.07 0.22 0.52 0.68 0.60 0.44 0.41 0.36 0.42 0.45 0.50 0.53 0.52 0.53 0.56 0.60 0.58 0.50 0.40 0.33 0.33 0.40 0.51 0.69 0.94 1.09 1.19
0.00 0.00 0.01 0.01 0.01 0.02 0.02 0.03 0.04 0.04 0.07 0.09 0.09 0.08 0.05 0.04 0.08 0.20 0.31 0.36 0.44 0.39 0.42 0.55 0.49 0.43 0.40 0.34 0.30 0.36 0.39 0.40 0.44 0.41 0.31 0.22 0.21 0.27 0.36 0.50 0.67 0.86 0.98
0.01 0.01 0.01 0.01 0.02 0.02 0.03 0.04 0.05 0.08 0.19 0.26 0.22 0.18 0.12 0.10 0.17 0.35 0.36 0.27 0.30 0.34 0.34 0.41 0.40 0.30 0.23 0.17 0.15 0.17 0.20 0.26 0.34 0.37 0.28 0.20 0.18 0.22 0.31 0.41 0.58 0.73 0.93
0.01 0.02 0.02 0.02 0.03 0.03 0.03 0.04 0.07 0.09 0.26 0.45 0.41 0.39 0.37 0.35 0.44 0.67 0.65 0.54 0.55 0.55 0.55 0.52 0.41 0.30 0.25 0.19 0.14 0.11 0.12 0.19 0.26 0.27 0.27 0.25 0.23 0.24 0.26 0.33 0.52 0.69 0.87
0.03 0.03 0.04 0.04 0.04 0.04 0.05 0.05 0.05 0.08 0.14 0.18 0.23 0.34 0.33 0.44 0.55 0.54 0.50 0.50 0.51 0.53 0.58 0.55 0.36 0.26 0.23 0.20 0.18 0.15 0.13 0.15 0.17 0.22 0.25 0.26 0.27 0.28 0.28 0.32 0.47 0.64 0.74
0.04 0.05 0.06 0.06 0.06 0.07 0.09 0.11 0.11 0.07 0.06 0.07 0.10 0.18 0.27 0.37 0.41 0.39 0.41 0.37 0.34 0.35 0.41 0.33 0.23 0.19 0.18 0.17 0.17 0.17 0.15 0.11 0.15 0.21 0.25 0.26 0.29 0.33 0.34 0.37 0.44 0.56 0.66
0.04 0.06 0.08 0.08 0.09 0.11 0.13 0.14 0.16 0.16 0.11 0.06 0.04 0.09 0.16 0.24 0.28 0.30 0.32 0.30 0.23 0.18 0.21 0.21 0.18 0.16 0.17 0.17 0.17 0.17 0.16 0.15 0.17 0.21 0.23 0.25 0.30 0.38 0.41 0.39 0.42 0.55 0.65
0.04 0.06 0.09 0.10 0.11 0.12 0.13 0.14 0.14 0.14 0.14 0.10 0.07 0.07 0.11 0.14 0.16 0.16 0.19 0.23 0.22 0.17 0.15 0.16 0.16 0.18 0.19 0.19 0.18 0.17 0.18 0.19 0.18 0.20 0.22 0.23 0.27 0.38 0.41 0.36 0.40 0.51 0.71
0.05 0.08 0.12 0.12 0.13 0.13 0.13 0.16 0.17 0.18 0.17 0.16 0.14 0.14 0.19 0.25 0.23 0.16 0.15 0.19 0.21 0.19 0.18 0.19 0.17 0.18 0.20 0.21 0.22 0.21 0.21 0.18 0.17 0.20 0.21 0.23 0.27 0.37 0.40 0.38 0.44 0.54 0.64
0.07 0.08 0.12 0.13 0.13 0.14 0.17 0.20 0.22 0.25 0.25 0.21 0.16 0.15 0.37 0.48 0.34 0.21 0.18 0.19 0.23 0.25 0.24 0.24 0.20 0.19 0.20 0.22 0.24 0.23 0.21 0.19 0.17 0.21 0.23 0.25 0.29 0.36 0.37 0.42 0.46 0.53 0.62
0.11 0.13 0.14 0.16 0.16 0.17 0.21 0.23 0.25 0.27 0.25 0.23 0.17 0.13 0.20 0.23 0.20 0.19 0.18 0.18 0.20 0.24 0.27 0.31 0.28 0.22 0.24 0.28 0.30 0.30 0.25 0.20 0.18 0.22 0.27 0.27 0.31 0.36 0.39 0.45 0.49 0.56 0.64
0.16 0.18 0.17 0.16 0.16 0.19 0.20 0.19 0.22 0.25 0.24 0.22 0.20 0.19 0.17 0.18 0.19 0.20 0.21 0.20 0.23 0.25 0.26 0.31 0.33 0.26 0.22 0.26 0.30 0.36 0.37 0.29 0.25 0.31 0.40 0.40 0.38 0.39 0.43 0.48 0.51 0.58 0.63
0.21 0.21 0.21 0.20 0.19 0.20 0.22 0.23 0.22 0.23 0.24 0.25 0.23 0.21 0.19 0.19 0.19 0.18 0.19 0.20 0.24 0.25 0.27 0.32 0.33 0.29 0.25 0.27 0.29 0.31 0.34 0.38 0.50 0.57 0.55 0.56 0.51 0.45 0.47 0.52 0.52 0.55 0.62
0.21 0.22 0.23 0.24 0.25 0.26 0.26 0.25 0.23 0.24 0.26 0.26 0.25 0.23 0.20 0.20 0.19 0.18 0.18 0.21 0.25 0.26 0.24 0.27 0.30 0.30 0.27 0.26 0.26 0.28 0.31 0.44 0.62 0.85 1.00 0.97 0.77 0.59 0.56 0.58 0.57 0.58 0.63
0.19 0.20 0.22 0.24 0.27 0.29 0.32 0.32 0.29 0.28 0.31 0.29 0.26 0.26 0.25 0.25 0.23 0.22 0.24 0.29 0.34 0.32 0.28 0.27 0.26 0.26 0.27 0.27 0.25 0.27 0.38 0.58 0.75 0.96 1.29 1.42 1.12 0.80 0.67 0.69 0.65 0.65 0.70